Location: *
(50.6089°N, 2.2719°E)
Time: 17:47:18
(UTC+00:00)

STARLINK-44 - Pass Details

Date: 18 October 2019
Orbit: 547 x 552 km, 53.0° (Epoch: 18 November)

Event Time Altitude Azimuth Distance (km) Brightness Sun altitude
Rises 18:30:56 0° 265° (W) 2,720 8.9 -16.2°
Reaches altitude 10° 18:33:11 10° 268° (W) 1,828 7.6 -16.5°
Maximum altitude 18:37:20 66° 351° (N) 606 3.8 -17.2°
Enters shadow 18:39:02 33° 63° (ENE) 935 4.3 -17.5°
